SKG791 CYOO-CYHS

Flight info

Callsign SKG791
Flight time 0h 24m
Altitude 22000
Route PEPLA
Aircraft C25B/M-SDE2E3FGHRWXY/LB1

Departure

Time 2026-05-04 00:15
Airport Oshawa Executive Airport (CYOO)

Arrival

Time 2026-05-04 00:40
Airport Hanover / Saugeen Municipal Airport (CYHS)
Time Latitude Longitude Altitude Speed Heading
2026-05-04 00:09 43.92527 -78.90241 462 ft 0 kts 18°
2026-05-04 00:11 43.92536 -78.90218 462 ft 10 kts 110°
2026-05-04 00:11 43.92480 -78.90195 461 ft 9 kts 115°
2026-05-04 00:12 43.92430 -78.90016 460 ft 23 kts 110°
2026-05-04 00:12 43.92412 -78.89868 458 ft 10 kts 67°
2026-05-04 00:12 43.92437 -78.89770 457 ft 11 kts 76°
2026-05-04 00:12 43.92459 -78.89669 457 ft 11 kts 65°
2026-05-04 00:13 43.92486 -78.89570 458 ft 11 kts 77°
2026-05-04 00:13 43.92513 -78.89488 459 ft 9 kts 75°
2026-05-04 00:13 43.92525 -78.89420 460 ft 1 kts 74°
2026-05-04 00:13 43.92535 -78.89366 461 ft 8 kts 75°
2026-05-04 00:14 43.92552 -78.89298 462 ft 8 kts 70°
2026-05-04 00:14 43.92554 -78.89290 462 ft 0 kts 73°
2026-05-04 00:14 43.92560 -78.89258 463 ft 7 kts 73°
2026-05-04 00:14 43.92573 -78.89200 464 ft 5 kts 75°
2026-05-04 00:15 43.92575 -78.89160 464 ft 2 kts 180°
2026-05-04 00:15 43.92425 -78.89311 460 ft 77 kts 215°
2026-05-04 00:15 43.91746 -78.90095 675 ft 164 kts 220°
2026-05-04 00:15 43.90692 -78.91220 1512 ft 218 kts 219°
2026-05-04 00:16 43.89487 -78.92521 2623 ft 221 kts 221°
2026-05-04 00:16 43.88271 -78.93802 3744 ft 217 kts 224°
2026-05-04 00:16 43.87069 -78.95045 4825 ft 215 kts 224°
2026-05-04 00:16 43.86045 -78.96408 6032 ft 188 kts 250°
2026-05-04 00:17 43.85895 -78.98150 7046 ft 186 kts 271°
2026-05-04 00:17 43.86101 -78.99934 7926 ft 190 kts 287°
2026-05-04 00:17 43.86500 -79.01691 8845 ft 193 kts 283°
2026-05-04 00:17 43.86811 -79.03512 9764 ft 196 kts 282°
2026-05-04 00:18 43.87095 -79.05382 10567 ft 200 kts 281°
2026-05-04 00:18 43.87383 -79.07293 11366 ft 205 kts 282°
2026-05-04 00:18 43.87676 -79.09250 12165 ft 209 kts 282°
2026-05-04 00:18 43.87984 -79.11240 12951 ft 214 kts 282°
2026-05-04 00:19 43.88289 -79.13281 13714 ft 219 kts 282°
2026-05-04 00:19 43.88607 -79.15357 14450 ft 221 kts 282°
2026-05-04 00:19 43.88922 -79.17461 15194 ft 224 kts 282°
2026-05-04 00:19 43.89247 -79.19592 15935 ft 227 kts 282°
2026-05-04 00:20 43.89567 -79.21726 16677 ft 230 kts 283°
2026-05-04 00:20 43.89902 -79.23912 17430 ft 233 kts 282°
2026-05-04 00:20 43.90241 -79.26129 18171 ft 237 kts 281°
2026-05-04 00:20 43.90559 -79.28382 18835 ft 239 kts 282°
2026-05-04 00:21 43.90902 -79.30656 19523 ft 241 kts 283°
2026-05-04 00:21 43.91254 -79.32940 20216 ft 243 kts 282°
2026-05-04 00:21 43.91601 -79.35252 20903 ft 246 kts 282°
2026-05-04 00:21 43.91947 -79.37588 21609 ft 248 kts 282°
2026-05-04 00:22 43.92309 -79.40003 21843 ft 268 kts 282°
2026-05-04 00:22 43.92702 -79.42643 21850 ft 291 kts 282°
2026-05-04 00:22 43.93122 -79.45464 21851 ft 310 kts 282°
2026-05-04 00:22 43.93478 -79.48514 21852 ft 327 kts 275°
2026-05-04 00:23 43.93494 -79.51742 21850 ft 341 kts 271°
2026-05-04 00:23 43.93495 -79.55082 21850 ft 351 kts 273°
2026-05-04 00:23 43.93604 -79.58513 21854 ft 360 kts 274°
2026-05-04 00:23 43.93725 -79.62011 21848 ft 366 kts 274°
2026-05-04 00:24 43.93810 -79.65564 21849 ft 371 kts 273°
2026-05-04 00:24 43.93888 -79.69156 21850 ft 374 kts 273°
2026-05-04 00:24 43.93966 -79.72782 21851 ft 377 kts 273°
2026-05-04 00:24 43.94072 -79.76436 21605 ft 384 kts 274°
2026-05-04 00:25 43.94170 -79.80191 21100 ft 391 kts 273°
2026-05-04 00:25 43.94251 -79.83918 20592 ft 387 kts 273°
2026-05-04 00:25 43.94338 -79.87659 20083 ft 389 kts 273°
2026-05-04 00:25 43.94415 -79.91375 19857 ft 381 kts 273°
2026-05-04 00:26 43.94499 -79.94957 19848 ft 372 kts 273°
2026-05-04 00:26 43.94581 -79.98609 19392 ft 376 kts 272°
2026-05-04 00:26 43.94656 -80.02179 18879 ft 373 kts 273°
2026-05-04 00:26 43.94744 -80.05729 18566 ft 363 kts 273°
2026-05-04 00:27 43.94816 -80.09217 18071 ft 361 kts 272°
2026-05-04 00:27 43.94878 -80.12684 17546 ft 358 kts 273°
2026-05-04 00:27 43.94953 -80.16126 17046 ft 355 kts 272°
2026-05-04 00:27 43.95027 -80.19544 16551 ft 352 kts 272°
2026-05-04 00:28 43.95097 -80.22933 16056 ft 350 kts 272°
2026-05-04 00:28 43.95159 -80.26308 15567 ft 348 kts 272°
2026-05-04 00:28 43.95229 -80.29613 15086 ft 346 kts 272°
2026-05-04 00:28 43.95288 -80.32940 14603 ft 344 kts 272°
2026-05-04 00:29 43.95356 -80.36254 14119 ft 343 kts 272°
2026-05-04 00:29 43.95413 -80.39553 13634 ft 341 kts 271°
2026-05-04 00:29 43.95477 -80.42828 13135 ft 338 kts 272°
2026-05-04 00:29 43.95532 -80.46080 12661 ft 335 kts 271°
2026-05-04 00:30 43.95594 -80.49303 12194 ft 333 kts 271°
2026-05-04 00:30 43.95647 -80.52503 11726 ft 330 kts 271°
2026-05-04 00:30 43.95705 -80.55685 11264 ft 329 kts 271°
2026-05-04 00:30 43.95755 -80.58854 10802 ft 327 kts 271°
2026-05-04 00:31 43.95810 -80.61992 10345 ft 325 kts 271°
2026-05-04 00:31 43.95861 -80.65024 9902 ft 300 kts 271°
2026-05-04 00:31 43.95907 -80.67791 9478 ft 275 kts 271°
2026-05-04 00:31 43.95946 -80.70345 9100 ft 255 kts 271°
2026-05-04 00:32 43.95984 -80.72689 8756 ft 238 kts 271°
2026-05-04 00:32 43.96020 -80.74925 8430 ft 226 kts 270°
2026-05-04 00:32 43.96051 -80.77054 8118 ft 216 kts 270°
2026-05-04 00:32 43.96086 -80.79092 7820 ft 207 kts 270°
2026-05-04 00:33 43.96108 -80.81037 7550 ft 197 kts 270°
2026-05-04 00:33 43.96162 -80.84680 7035 ft 181 kts 269°
2026-05-04 00:33 43.96192 -80.86403 6788 ft 176 kts 269°
2026-05-04 00:34 43.96213 -80.88078 6540 ft 171 kts 269°
2026-05-04 00:34 43.96238 -80.89709 6300 ft 167 kts 268°
2026-05-04 00:34 43.96260 -80.91333 6056 ft 169 kts 269°
2026-05-04 00:34 43.96282 -80.92971 5823 ft 170 kts 268°
2026-05-04 00:35 43.96306 -80.94619 5580 ft 172 kts 269°
2026-05-04 00:35 43.96361 -80.96274 5372 ft 172 kts 270°
2026-05-04 00:35 43.96413 -80.97909 5166 ft 172 kts 269°
2026-05-04 00:35 43.96473 -80.99565 4957 ft 172 kts 269°
2026-05-04 00:36 43.96643 -81.01209 4748 ft 174 kts 281°
2026-05-04 00:36 43.97076 -81.02795 4530 ft 177 kts 289°
2026-05-04 00:36 43.97772 -81.04249 4315 ft 183 kts 300°
2026-05-04 00:36 43.98708 -81.05504 4092 ft 192 kts 313°
2026-05-04 00:37 43.99880 -81.06471 3845 ft 201 kts 326°
2026-05-04 00:37 44.01245 -81.07031 3595 ft 209 kts 340°
2026-05-04 00:37 44.02738 -81.07100 3352 ft 219 kts 354°
2026-05-04 00:37 44.03734 -81.07012 3227 ft 215 kts 352°
2026-05-04 00:38 44.05258 -81.06935 2983 ft 221 kts 353°
2026-05-04 00:38 44.06788 -81.06835 2700 ft 219 kts 353°
2026-05-04 00:38 44.08297 -81.06733 2411 ft 215 kts 354°
2026-05-04 00:38 44.09775 -81.06637 2123 ft 207 kts 354°
2026-05-04 00:39 44.11138 -81.06544 1806 ft 183 kts 358°
2026-05-04 00:39 44.12278 -81.06458 1574 ft 145 kts 358°
2026-05-04 00:39 44.13214 -81.06399 1345 ft 126 kts 357°
2026-05-04 00:39 44.14092 -81.06359 1163 ft 126 kts 360°
2026-05-04 00:40 44.14956 -81.06297 981 ft 121 kts 358°
2026-05-04 00:40 44.15706 -81.06266 924 ft 66 kts
2026-05-04 00:40 44.15994 -81.06216 931 ft 15 kts 50°
2026-05-04 00:40 44.16074 -81.06141 935 ft 20 kts 356°
2026-05-04 00:41 44.16230 -81.06130 940 ft 11 kts 14°
2026-05-04 00:41 44.16294 -81.06085 942 ft 9 kts 11°
2026-05-04 00:41 44.16296 -81.06085 942 ft 0 kts
2026-05-04 00:41 44.16295 -81.06085 942 ft 0 kts